Lid_Strength_Index
-0 0 1 0 1 1 1 1 -0 0 -1 -1 -1 -0 -1 -0 0 0 0 1 1 1
-0 -0 0 -0 -0 0 0 0 -0 -0 0 -0 -0 -0 -1 -0 0 0 0 1 1 1
-0 -1 -1 -1 -0 -0 -0 -0 -0 -0 -0 -0 -1 -1 -0 0 -0 0 0 0 0 1
-0 -1 -1 -0 -0 -0 -0 -1 0 0 0 0 -0 -0 -0 -0 1 1 1 0 1 1
-0 -0 -0 -0 -0 -1 -0 -0 -0 -0 0 1 1 -0 0 0 0 1 1 1 1 1
-0 -0 -0 -0 -0 -1 -0 -0 -0 -0 0 1 1 0 0 0 0 0 0 0 0 1
0 -0 -0 -0 -1 -1 -1 -0 -0 -0 -0 -0 0 0 -0 -0 0 0 -0 -0 -0 -0
-0 -1 -0 -0 -0 -1 -1 -0 0 -0 -0 -1 -0 0 -0 -0 -0 -0 0 -0 -0 -1
-0 -0 -0 -0 -0 -0 -0 -1 0 -0 -0 -0 -0 7 5 1 -0 -0 0 0 -0 -1
0 0 0 -0 -0 -0 -0 -1 -1 -1 -1 -0 -1 7 6 4 -1 -0 -0 -0 -0 -0
0 0 0 -0 0 -0 -0 -0 -0 -0 -0 -1 0 8 7 4 -1 -1 -1 -1 -1 -1
0 0 0 0 0 -0 0 0 -0 -0 -0 -0 -0 8 8 4 -1 -0 -0 -1 -0 -1
-0 0 0 -0 -0 -0 -0 -0 -0 -0 -1 2 -0 9 9 5 1 0 2 1 2 8
-0 -0 -0 -0 -0 -0 -0 -0 -0 -0 -1 -1 -0 1 10 9 1 2 3 4 3 4